Temp
17 12 13 17 17 18 19 18 19 18 18 19 17 16 17 17 16 15 14 15 13 13 14 15 15 16 15 15 15 15 14 14 14 14 14 14 13 13 13 12 12 12 12 11
14 14 16 16 17 18 18 19 19 18 18 18 18 17 17 17 17 15 15 13 12 12 12 13 14 15 15 15 15 14 14 14 14 13 13 13 13 12 12 12 12 11 11 11
14 16 16 18 15 18 16 17 17 19 18 18 17 17 19 17 17 15 14 12 12 12 11 11 13 14 14 14 14 14 13 13 13 13 13 13 13 12 12 12 11 11 10 10
14 15 17 16 15 15 19 16 17 18 17 15 17 17 18 18 17 16 12 11 11 12 12 12 12 12 14 14 13 13 13 13 13 13 13 13 12 12 11 10 10 10 10 10
14 14 15 15 15 15 17 16 16 16 14 14 16 11 16 16 16 15 13 11 11 10 11 11 12 13 13 13 13 13 13 12 13 13 12 12 12 11 10 10 10 10 10 10
13 14 13 14 15 15 16 15 12 10 10 11 15 11 13 16 18 16 14 12 11 11 11 11 13 13 13 12 12 12 12 12 12 12 12 12 11 11 11 10 10 10 10 9
12 13 14 14 15 15 13 12 10 13 10 12 12 10 14 17 17 16 13 12 11 10 10 9 10 11 12 12 12 12 12 12 12 12 12 11 11 10 10 10 10 9 10 9
10 12 14 13 14 14 15 13 11 16 13 12 13 13 14 15 15 15 14 12 11 10 10 9 10 11 12 12 12 12 12 12 12 12 11 11 11 10 10 10 9 9 9 9
13 13 13 13 13 14 15 12 13 11 11 12 10 14 15 16 15 15 13 12 11 10 10 9 11 11 12 12 12 12 12 12 12 11 11 11 10 10 10 10 9 9 9 9
15 13 13 13 13 13 14 13 13 9 16 16 12 14 12 14 15 14 13 12 12 11 10 9 10 12 13 13 13 12 12 12 12 11 11 10 10 10 10 9 9 9 9 9
15 14 12 13 12 12 12 12 12 12 11 14 15 12 11 12 14 13 13 12 12 11 10 9 10 12 13 13 13 12 12 12 11 11 11 10 10 10 9 9 9 9 9 8
13 11 8 14 12 13 13 14 12 12 15 10 10 11 12 13 14 12 9 9 9 9 8 8 10 11 11 12 12 12 12 12 12 11 11 10 10 10 9 9 9 9 9 9
13 12 9 12 12 12 12 12 12 10 9 11 12 13 12 10 10 10 9 8 8 8 8 7 8 9 10 11 11 12 12 12 12 11 11 10 10 10 9 9 9 8 8 8
11 11 13 12 15 11 12 11 12 11 7 10 10 14 13 12 10 9 8 8 8 8 8 7 7 7 8 10 11 11 12 12 12 11 11 10 10 9 9 9 8 8 8 8
11 12 10 11 11 13 13 13 10 9 11 12 13 12 12 11 9 8 8 8 8 7 7 6 6 6 7 7 9 10 11 11 11 11 10 10 10 9 9 8 8 8 8 7
9 12 11 12 12 10 11 11 11 11 12 11 12 12 12 8 7 8 7 8 7 7 6 6 5 6 6 7 8 9 9 9 9 9 9 9 9 9 8 8 8 8 7 7
10 10 9 12 11 12 12 11 11 11 11 12 11 13 8 8 8 7 7 7 6 6 6 5 5 5 6 7 7 7 7 8 8 8 8 8 8 8 8 8 7 7 7 6
9 10 9 8 11 10 14 13 13 11 12 12 10 9 9 7 6 6 7 6 6 6 5 5 6 6 7 6 6 6 6 6 6 6 6 6 6 6 6 6 6 6 6 6
9 9 10 11 9 10 14 12 13 13 12 9 8 7 7 6 6 6 6 6 6 6 6 6 6 6 7 6 6 6 6 6 6 6 6 6 6 6 6 6 6 5 5 5
8 8 9 8 10 11 13 12 12 12 10 8 7 7 7 6 6 5 6 6 6 7 6 6 6 6 6 6 6 5 5 5 5 5 5 5 5 5 5 5 5 5 5 5
8 7 8 8 7 9 10 11 11 11 11 7 6 6 7 6 6 6 6 6 6 6 6 6 6 6 6 6 5 5 5 5 5 5 4 4 4 4 4 4 5 5 5 4
8 7 7 7 7 8 10 11 11 8 5 5 5 6 6 6 7 6 6 6 6 6 6 6 5 5 5 5 5 5 4 5 4 4 4 4 3 3 3 3 3 3 4 3
10 9 9 9 9 8 6 7 5 5 5 5 5 6 6 6 6 6 5 5 5 5 5 5 5 5 5 5 5 4 4 4 3 3 3 3 2 2 2 2 2 2 2 1
10 10 9 10 9 7 6 5 5 6 6 6 6 6 6 6 6 5 4 3 4 5 5 6 5 4 4 5 5 4 4 4 3 2 2 2 1 1 1 1 1 1 1 1
8 9 9 8 8 6 5 4 5 5 6 6 6 6 6 5 5 4 3 3 4 4 4 5 4 3 4 4 4 4 3 3 2 1 1 1 0 1 1 0 0 1 1 1
8 10 9 8 8 7 6 5 5 6 6 6 5 5 5 5 3 3 2 4 3 3 3 3 3 2 3 3 3 3 3 2 1 0 -0 0 0 0 -0 -0 -0 -0 -0 -0
Height
798 817 824 810 810 811 810 816 815 817 812 815 819 818 809 805 807 810 810 810 813 815 815 816 817 819 822 825 826 827 828 829 829 829 829 829 828 828 828 827 825 823 822 821
810 818 809 808 808 808 814 816 818 817 814 819 817 815 807 803 802 804 806 811 814 816 817 818 819 820 822 824 825 826 828 829 829 829 829 828 828 828 828 827 825 823 820 820
815 812 808 806 818 812 822 820 821 815 817 817 822 818 802 801 801 802 803 808 812 813 817 819 819 820 822 823 825 827 828 829 828 828 827 827 826 827 826 826 825 823 821 819
816 812 808 813 821 822 815 820 815 818 827 845 826 839 810 803 805 804 811 812 813 815 817 817 818 820 821 823 825 827 828 828 828 828 827 826 826 826 825 825 825 823 822 820
819 817 816 819 823 821 819 818 819 823 836 840 832 861 817 808 809 808 812 813 814 815 815 816 817 818 821 823 824 826 827 828 828 827 827 826 826 826 826 826 825 824 822 821
819 816 820 821 820 820 819 825 834 844 853 871 838 856 833 812 800 802 807 811 812 813 814 814 816 819 821 823 825 826 827 828 827 827 827 827 827 827 826 825 825 824 822 821
826 826 821 820 821 821 828 841 873 861 877 860 848 861 822 801 799 799 804 808 809 811 813 816 818 820 821 823 824 826 827 827 827 826 826 826 826 826 825 825 825 824 822 820
842 845 825 825 825 828 828 838 860 848 860 855 841 844 818 802 800 799 801 805 809 813 815 815 815 817 818 820 821 823 824 824 824 824 824 824 824 825 824 824 824 823 821 819
825 829 827 827 827 828 830 843 835 852 858 855 854 825 806 800 802 802 805 809 813 815 813 814 814 816 818 819 821 823 824 824 824 824 824 824 824 824 823 823 823 822 820 818
810 830 829 828 827 828 828 833 845 864 839 837 846 833 829 811 808 806 809 812 814 814 815 814 814 813 814 815 818 820 821 821 822 823 822 823 823 822 823 822 822 821 819 817
807 816 836 831 835 832 837 837 839 843 848 841 841 838 818 815 807 809 811 812 813 814 814 812 809 809 810 811 814 815 817 818 819 820 821 821 821 822 821 821 820 819 818 817
814 825 854 827 829 828 828 827 834 845 834 854 857 843 811 807 806 809 819 819 819 818 816 811 810 810 811 810 811 811 814 815 817 818 819 819 819 819 819 818 817 816 815 813
814 825 854 833 834 831 829 828 828 840 849 846 844 826 813 816 818 819 821 822 822 820 817 815 813 812 811 811 812 812 813 814 815 815 816 816 817 817 817 817 816 815 813 812
818 828 825 833 817 828 829 830 829 832 863 841 837 812 812 814 817 821 824 823 821 820 819 818 817 815 810 806 807 809 811 812 813 813 814 814 815 816 815 814 813 812 810 808
822 823 832 827 824 819 818 819 830 838 825 823 811 816 810 813 820 822 822 822 822 823 823 823 821 818 814 810 809 809 810 811 811 811 811 812 812 812 811 810 809 808 807 806
828 826 827 823 818 827 824 821 820 817 813 819 812 811 803 816 818 821 823 823 825 826 826 826 824 822 820 817 816 813 813 813 813 812 811 810 810 808 806 805 804 803 802 800
826 832 837 823 824 820 820 805 810 810 809 805 813 797 812 817 819 823 824 824 825 826 826 825 824 824 823 822 821 819 819 817 815 813 812 811 808 806 804 802 801 798 797 796
828 830 837 843 827 836 795 794 795 802 799 801 806 808 810 817 822 824 823 824 825 825 826 825 824 822 821 820 820 819 818 817 815 813 810 807 804 802 799 798 796 795 793 791
822 829 831 828 840 816 790 796 796 795 797 806 811 816 819 822 824 826 824 823 824 824 823 823 823 822 820 819 818 816 815 813 811 809 808 806 803 799 796 793 792 790 787 785
827 828 828 841 830 814 792 794 794 794 808 807 810 814 816 820 824 825 821 820 821 821 821 821 820 821 820 819 818 815 813 811 809 806 804 801 799 796 793 791 788 785 782 780
832 835 835 837 839 817 797 794 794 803 802 809 813 817 818 821 822 821 822 823 822 821 821 820 819 819 817 816 814 812 810 808 805 802 798 795 793 791 788 785 782 779 776 773
823 834 837 839 838 826 796 797 799 803 809 811 813 813 814 815 816 818 820 822 820 820 818 817 817 816 815 814 812 810 808 804 801 797 793 790 787 783 781 778 774 771 768 764
813 808 811 811 807 802 805 802 805 806 809 812 812 813 813 814 815 817 818 818 818 818 816 815 813 812 810 809 808 804 801 799 795 791 787 784 781 777 773 770 767 764 761 758
800 801 803 798 799 803 805 807 806 807 808 809 809 810 811 813 815 816 817 816 815 813 812 810 808 805 802 800 799 798 795 792 787 783 780 776 773 770 766 763 760 757 754 752
806 800 798 803 800 806 806 807 806 807 808 809 810 812 813 813 813 815 815 814 812 811 808 806 803 799 796 794 791 790 788 785 779 776 773 770 766 764 760 756 753 750 746 745
802 794 800 799 795 797 797 798 803 805 807 808 810 811 811 813 812 812 811 810 808 804 802 798 794 791 788 787 784 782 780 777 773 769 765 763 760 755 753 750 743 740 739 735
Wind_Speed
1 6 3 3 4 4 1 2 3 1 1 2 6 6 9 7 5 8 8 5 7 7 5 14 16 18 17 12 9 6 4 1 0 2 3 2 4 6 5 6 7 8 8 10
6 3 2 2 1 2 2 4 2 1 1 2 2 10 9 6 6 8 9 7 8 6 6 12 17 16 12 11 9 6 4 3 1 2 3 2 1 2 4 5 6 6 7 8
6 1 2 1 6 4 3 3 5 3 2 0 4 8 3 2 2 4 3 5 5 11 10 7 11 11 12 11 9 7 6 4 3 3 3 3 3 3 1 4 6 7 8 8
5 4 1 4 5 1 2 2 2 6 4 3 3 4 5 1 2 2 4 7 8 7 5 6 10 12 13 10 9 8 7 5 4 2 2 3 3 1 3 4 5 6 7 8
2 3 5 6 1 1 2 2 3 3 4 4 1 3 7 1 4 6 7 8 8 8 8 8 13 15 12 11 11 9 7 6 4 3 2 2 2 2 2 3 5 6 7 9
3 2 3 2 1 2 2 4 7 5 4 2 1 5 6 3 3 2 4 6 9 9 8 9 13 13 12 11 11 10 8 7 4 3 1 1 1 1 1 3 5 6 7 9
5 4 3 3 3 4 6 6 3 4 3 5 2 2 9 4 1 2 8 9 9 8 8 7 9 12 12 13 12 11 10 7 5 3 2 2 1 0 1 3 4 6 7 9
5 4 2 4 3 4 2 4 5 6 3 4 2 5 6 4 0 2 4 7 6 6 5 8 13 16 15 15 15 14 13 10 8 6 5 4 2 1 1 2 4 5 7 8
4 2 2 2 2 2 3 1 2 6 3 3 2 7 7 2 2 2 3 6 6 6 8 8 12 14 15 15 15 14 12 9 8 6 5 4 4 3 3 3 4 5 7 9
4 5 1 1 1 1 1 2 3 3 2 4 5 5 5 4 3 2 4 5 5 5 6 7 12 16 17 17 16 15 13 11 9 8 7 6 5 5 5 6 6 7 8 9
1 3 2 2 4 6 1 0 3 3 4 4 1 6 5 4 5 6 5 6 4 4 7 8 14 19 20 19 19 17 15 13 11 10 8 8 7 6 7 8 8 9 10 11
1 4 3 1 1 1 1 2 4 4 4 0 3 6 4 4 2 5 7 7 6 5 7 7 7 11 15 19 21 20 18 15 12 10 10 9 9 9 10 10 10 10 11 11
1 1 2 5 4 3 3 4 4 4 2 6 5 5 2 5 7 5 8 6 5 6 8 7 15 15 12 19 20 21 17 16 13 12 12 11 11 11 11 12 12 12 13 13
2 2 4 5 2 4 3 4 4 4 3 3 6 2 4 5 6 5 6 6 6 7 8 8 11 15 21 8 16 20 18 16 14 14 13 12 12 11 12 12 13 14 14 15
3 4 2 4 6 4 4 5 8 9 7 7 3 7 7 6 7 6 5 5 7 7 8 8 8 14 21 26 17 8 14 14 14 15 13 13 11 11 12 14 14 15 16 17
2 1 2 4 3 5 6 8 10 11 6 10 6 10 5 5 7 6 6 6 7 6 6 7 9 16 20 25 25 21 13 9 8 11 12 11 11 13 14 15 16 16 18 19
2 3 2 3 4 5 8 7 11 6 4 8 9 8 7 5 7 6 6 6 6 5 5 6 7 11 17 19 19 20 19 16 14 13 15 17 18 18 17 17 16 17 20 19
5 4 3 3 2 2 5 1 2 7 2 4 2 3 4 7 5 5 3 5 5 5 5 5 9 12 15 15 16 17 17 17 17 17 18 19 19 18 17 18 18 18 19 23
3 4 1 2 3 6 6 2 1 3 2 1 7 6 8 7 5 4 3 4 5 4 3 3 4 7 10 12 15 18 20 20 20 21 21 21 19 19 20 21 21 22 22 23
4 3 3 3 3 6 3 1 1 1 4 2 6 6 7 7 4 3 4 4 4 4 3 3 4 6 9 12 15 18 20 22 25 27 28 26 25 23 24 25 26 26 25 27
3 0 5 4 3 7 4 3 1 4 4 4 5 4 3 2 2 3 3 1 3 2 1 3 4 7 9 12 14 16 18 22 26 27 28 29 30 30 31 31 30 31 32 31
6 6 4 3 3 8 3 2 5 3 3 6 5 5 5 4 3 5 4 4 4 4 4 5 7 9 11 13 16 20 23 29 29 30 32 32 31 30 30 30 32 33 35 34
3 5 4 8 5 1 2 1 1 4 5 4 4 3 4 4 3 1 2 3 6 10 11 12 12 15 17 18 19 23 28 30 34 33 33 33 32 31 30 29 30 32 30 27
0 1 3 1 2 2 2 1 2 3 4 4 4 5 5 4 3 3 3 6 9 17 20 22 22 24 26 23 24 25 29 32 34 33 32 32 30 30 28 28 28 27 27 25
4 3 1 4 3 1 4 5 5 4 3 3 2 2 3 3 3 3 5 9 17 22 26 27 27 28 30 29 27 28 30 31 33 32 30 29 27 28 29 29 28 27 30 28
4 8 5 5 4 4 4 6 6 5 5 5 5 3 3 4 5 7 9 19 21 23 27 26 28 27 32 30 30 32 33 32 32 28 25 26 25 25 25 25 29 29 28 31
Wind_Direction
72 76 142 181 174 137 183 183 174 296 218 164 243 272 250 238 235 234 232 209 160 147 122 136 145 150 149 150 149 147 160 163 182 161 154 134 74 61 46 23 12 8 12 2
37 101 234 290 327 45 25 173 158 339 106 107 344 272 260 234 232 206 204 176 159 131 126 136 139 145 152 149 153 160 167 166 133 114 98 76 44 25 45 20 11 18 17 4
119 165 315 118 46 101 58 185 168 174 104 318 328 294 298 30 66 75 86 150 144 159 156 158 150 153 153 156 165 170 168 164 146 148 150 140 130 144 22 13 6 10 7 8
90 321 78 86 81 350 139 302 107 109 94 217 60 268 291 177 119 109 100 153 163 164 159 164 159 159 165 168 169 172 172 170 158 141 139 136 124 116 25 3 3 8 10 9
228 28 66 76 94 307 140 27 61 89 98 59 328 72 268 320 211 216 189 183 186 190 179 181 179 181 182 180 177 177 177 172 171 170 149 122 103 82 38 4 3 19 19 14
102 76 60 102 61 66 115 65 42 54 71 21 269 129 280 218 210 189 186 191 188 189 192 183 185 181 181 182 184 187 188 189 189 189 147 89 66 61 32 14 11 14 19 19
13 354 356 54 80 26 66 57 6 357 3 216 284 49 246 252 303 243 189 186 192 181 170 166 165 182 189 191 194 198 201 204 202 206 204 190 178 256 3 6 355 360 8 12
136 330 43 353 60 163 118 143 155 203 197 254 45 235 257 221 130 318 176 177 163 168 170 185 193 198 202 203 202 202 208 212 212 216 215 212 215 244 302 329 330 342 353 359
134 17 319 42 24 82 165 204 160 104 11 43 239 286 303 224 326 12 168 152 170 188 202 208 214 218 215 214 215 217 220 228 230 235 232 232 237 256 275 289 300 325 338 344
190 88 356 339 22 52 150 161 63 1 168 253 291 283 241 247 194 185 148 163 210 238 242 238 229 224 220 219 218 219 225 237 242 244 244 245 250 261 278 286 294 309 324 328
103 94 278 51 203 179 101 237 65 125 146 178 280 264 218 224 185 188 182 199 229 278 279 255 240 231 224 217 216 219 222 231 236 239 244 249 258 269 275 284 295 304 312 318
15 118 150 177 304 1 209 200 152 127 224 134 142 275 332 152 110 127 72 73 60 42 20 355 279 263 241 224 221 219 222 229 235 238 243 254 259 262 268 277 286 294 299 303
49 5 56 351 356 357 218 199 162 123 100 204 144 259 27 90 80 71 100 76 57 40 31 18 20 6 282 249 240 228 226 232 235 234 237 251 259 266 275 284 291 295 299 303
86 114 163 189 199 130 207 207 198 137 123 183 230 250 198 180 132 96 86 86 73 54 37 26 19 9 16 328 250 236 233 235 234 232 238 253 264 276 287 289 293 296 299 302
114 197 150 240 231 215 220 194 186 197 197 184 242 209 206 195 153 144 128 94 67 47 37 27 21 14 18 23 19 277 255 246 239 234 243 259 272 282 288 289 294 296 299 304
16 286 89 304 303 224 265 236 215 226 224 249 260 264 202 132 116 116 114 94 75 55 38 26 22 24 21 20 23 27 14 348 304 280 284 294 296 295 290 288 290 293 297 302
107 119 74 277 359 346 296 236 199 194 212 207 220 236 156 144 135 142 131 113 104 79 56 40 30 31 27 25 23 19 13 7 360 346 334 323 314 303 298 297 296 295 296 298
144 134 143 242 19 217 240 90 162 202 221 211 76 109 141 133 114 111 130 126 105 86 57 34 24 20 16 15 12 3 360 354 347 342 337 331 327 322 310 301 298 298 297 297
162 136 190 208 216 295 301 57 163 185 223 339 140 119 111 124 90 36 122 133 147 147 133 58 29 11 3 3 357 349 345 344 338 334 329 324 321 316 311 303 300 299 297 300
59 69 139 146 198 236 222 208 42 356 286 59 136 157 154 157 180 211 190 163 153 125 112 69 32 4 357 349 343 338 337 333 328 326 322 320 308 304 305 296 296 297 297 303
139 126 206 215 261 284 239 182 280 122 235 136 126 139 133 169 203 158 177 189 169 159 44 0 342 330 325 327 326 321 320 314 312 310 309 311 311 309 305 300 295 295 295 294
172 155 200 156 206 275 143 85 176 177 108 140 151 162 155 166 178 156 172 204 216 254 278 293 291 298 310 324 326 318 313 317 314 308 310 310 311 309 307 305 303 300 295 291
240 195 187 193 216 9 359 306 104 138 144 179 155 167 174 192 219 194 243 283 290 294 294 295 289 293 295 300 304 300 305 314 315 311 309 309 310 307 303 300 296 295 292 286
212 327 237 21 228 201 183 83 151 165 150 162 169 185 194 198 202 255 284 284 291 296 292 293 291 285 282 289 290 296 305 310 312 307 305 305 302 300 297 296 292 288 284 282
213 333 263 259 240 356 258 220 198 193 175 179 229 206 212 200 235 236 270 278 278 284 291 294 288 281 277 285 288 299 307 306 305 300 296 295 293 292 293 291 286 284 284 281
203 250 253 260 237 204 217 199 184 170 184 216 189 228 239 247 266 277 270 280 285 286 291 289 289 284 284 287 297 304 307 304 300 291 290 287 287 287 288 289 291 288 283 286